Location: Esterri de Aneo
(42.6284°N, 1.1223°E)
Time: 01:05:58
(UTC+00:00)

Cosmos 1782 - Pass Details

Date: 11 December 2025
Orbit: 464 x 475 km, 82.5° (Epoch: 17 January)

Event Time Altitude Azimuth Distance (km) Brightness Sun altitude
Rises 17:16:53 0° 208° (SSW) 2,524 7.1 -9.8°
Reaches altitude 10° 17:19:07 10° 218° (SW) 1,648 6.3 -10.2°
Maximum altitude 17:22:23 32° 283° (WNW) 842 4.4 -10.8°
Drops below altitude 10° 17:25:40 10° 348° (NNW) 1,655 5.2 -11.3°
Sets 17:27:55 0° 359° (N) 2,535 6.0 -11.7°
